HST 1 20580U 90037B 25258.37594822 .00009313 00000+0 34018-3 0 9990 2 20580 28.4676 153.1653 0002414 351.8347 8.2208 15.26327892746479 POLAR 1 23802U 96013A 25255.76077948 .00000245 00000+0 00000+0 0 9990 2 23802 79.5453 230.1277 6199658 218.4506 74.9285 1.29846611141258 SWAS 1 25560U 98071A 25258.33982124 .00005532 00000+0 37746-3 0 9991 2 25560 69.8958 214.9450 0008432 304.2516 55.7847 15.06756501455824 CXO 1 25867U 99040B 25259.35019206 .00000941 00000+0 00000+0 0 9991 2 25867 51.3649 125.8051 8285649 310.4265 0.3581 0.37804868 16281 XMM-NEWTON 1 25989U 99066A 25259.11506150 .00000093 00000+0 00000+0 0 9995 2 25989 65.8345 286.5932 4789703 69.7680 0.0793 0.50133345 21630 TERRA 1 25994U 99068A 25258.59593451 .00000384 00000+0 87883-4 0 9996 2 25994 97.9889 313.4487 0002925 45.4878 80.9282 14.60798214369510 CLUSTER II-FM7 (SAMBA) 1 26410U 00041A 25260.84373051 .00001144 00000+0 00000+0 0 9992 2 26410 146.0733 17.7134 8590428 233.1461 0.0674 0.44789085 19088 CLUSTER II-FM5 (RUMBA) 1 26463U 00045A 25256.35818407 .00008496 00000+0 00000+0 0 9991 2 26463 147.9057 92.6176 9113883 312.2268 1.6919 0.42922709 18947 CLUSTER II-FM8 (TANGO) 1 26464U 00045B 25260.97668006 .00001170 00000+0 00000+0 0 9995 2 26464 146.3412 18.1863 8595183 233.4772 0.1006 0.44418015 19081 ODIN 1 26702U 01007A 25258.59546790 .00024809 00000+0 53081-3 0 9994 2 26702 97.4378 284.1081 0006252 94.4549 265.7414 15.44776587346692 TIMED 1 26998U 01055B 25258.61503355 .00001329 00000+0 12761-3 0 9999 2 26998 74.0671 67.4747 0001778 291.7888 68.3107 14.94223444289799 CORIOLIS 1 27640U 03001A 25258.58496196 .00000118 00000+0 76288-4 0 9997 2 27640 98.7162 264.6773 0012941 285.3412 74.6334 14.19822804175257 SORCE 1 27651U 03004A 25258.45841419 .00004947 00000+0 38854-3 0 9990 2 27651 39.9923 26.5507 0017846 236.2501 123.6592 15.01223597230567 MOST 1 27843U 03031D 25258.58623045 .00000065 00000+0 50031-4 0 9999 2 27843 98.7090 265.1394 0009288 331.3329 28.7336 14.21232900151707 SCISAT 1 1 27858U 03036A 25258.60585205 .00000728 00000+0 98914-4 0 9996 2 27858 73.9327 356.6972 0006306 128.8500 231.3240 14.80872831190793 SWIFT 1 28485U 04047A 25258.22710201 .00050366 00000+0 11009-2 0 9991 2 28485 20.5545 105.0695 0004503 135.6242 224.4560 15.42437434143997 HINODE (SOLAR-B) 1 29479U 06041A 25258.56920473 .00000638 00000+0 11940-3 0 9994 2 29479 98.0716 273.6531 0019059 80.1667 280.1689 14.68073583 14579 SHIJIAN-6 02A (SJ-6 02A) 1 29505U 06046A 25258.59019162 .00007000 00000+0 40551-3 0 9996 2 29505 97.6759 292.8063 0003759 34.7501 325.3974 15.12522072 30698 SHIJIAN-6 02B (SJ-6 02B) 1 29506U 06046B 25258.65168302 .00000394 00000+0 36364-4 0 9992 2 29506 97.7024 285.2255 0008705 250.6731 109.3551 15.00138363 29562 FGRST (GLAST) 1 33053U 08029A 25258.43370184 .00004545 00000+0 18095-3 0 9998 2 33053 25.5829 309.3434 0008200 331.2714 28.7371 15.21697501953905 SDO 1 36395U 10005A 25258.56420919 -.00000082 00000+0 00000+0 0 9999 2 36395 34.0708 90.5313 0001530 106.3652 259.3523 1.00274241 57319 CRYOSAT 2 1 36508U 10013A 25258.57325429 .00000200 00000+0 48779-4 0 9996 2 36508 92.0183 210.8494 0002702 94.4322 265.7194 14.51906758818232 X-SAT 1 37389U 11015C 25258.57091006 .00000129 00000+0 72149-4 0 9996 2 37389 98.3217 244.1939 0015291 70.9820 289.3016 14.25072944748565 GCOM-W1 (SHIZUKU) 1 38337U 12025A 25258.58166595 .00000549 00000+0 13185-3 0 9999 2 38337 98.2064 198.0068 0001568 79.7045 93.3500 14.57128818709044 NUSTAR 1 38358U 12031A 25258.66668981 .00020744 00000+0 13657-2 0 9996 2 38358 6.0275 287.7236 0008301 344.1849 306.0903 15.04803669 1306 NEOSSAT 1 39089U 13009D 25258.49185547 .00000189 00000+0 80269-4 0 9993 2 39089 98.4105 80.1984 0010816 351.5793 8.5210 14.35657665657324 BRITE-AUSTRIA 1 39091U 13009F 25258.48638123 .00000177 00000+0 75012-4 0 9995 2 39091 98.3917 79.8766 0009917 347.1371 12.9561 14.36357485657611 IRIS 1 39197U 13033A 25258.53357649 .00001222 00000+0 14967-3 0 9999 2 39197 97.9488 93.5680 0025747 134.7515 225.5800 14.84817127659609 HISAKI (SPRINT-A) 1 39253U 13049A 25258.48863503 .00000112 00000+0 64056-4 0 9996 2 39253 29.7194 176.5550 0136690 309.7551 49.1049 13.55502306594128 CASSIOPE 1 39265U 13055A 25258.53095538 .00031284 -27729-6 47070-3 0 9992 2 39265 80.9417 34.9260 0372192 254.6267 101.3552 15.02743814626080 STSAT-3 1 39422U 13066G 25258.65452451 .00003134 00000+0 25400-3 0 9994 2 39422 97.5714 229.1238 0012341 248.3889 111.6021 15.00349506643003 SWARM B 1 39451U 13067A 25258.55729098 .00004092 00000+0 15835-3 0 9995 2 39451 87.7391 65.5609 0002808 81.2346 278.9219 15.25911302641325 SWARM A 1 39452U 13067B 25258.48396585 .00011002 00000+0 24065-3 0 9993 2 39452 87.3440 157.6769 0003517 87.8637 272.3023 15.43999005663769 SWARM C 1 39453U 13067C 25258.48386024 .00010760 00000+0 23535-3 0 9992 2 39453 87.3437 156.2665 0003493 88.0441 272.1216 15.43997506663727 BRITE-CA1 (TORONTO) 1 40020U 14033L 25258.61268575 .00000997 00000+0 15936-3 0 9990 2 40020 97.9388 28.3635 0081011 76.1930 284.8276 14.71849799601818 OCO 2 1 40059U 14035A 25258.54527958 .00000491 00000+0 11900-3 0 9995 2 40059 98.2063 198.7168 0001743 89.4169 270.7229 14.57087504596055 BRITE-PL2 (HEWELIUSZ) 1 40119U 14049B 25258.55385650 .00001775 00000+0 17627-3 0 9997 2 40119 97.8950 4.0480 0013319 302.8351 57.1585 14.92972663600444 MMS 1 1 40482U 15011A 25258.58341435 -.00002334 00000+0 00000+0 0 9992 2 40482 67.4801 353.0967 8602253 161.5999 353.0723 0.28474988 1380 MMS 2 1 40483U 15011B 25258.58341435 -.00002335 00000+0 00000+0 0 9994 2 40483 67.4837 353.0947 8604866 161.5972 353.0815 0.28474917 1385 MMS 3 1 40484U 15011C 25258.58341435 -.00002335 00000+0 00000+0 0 9995 2 40484 67.4872 353.1045 8603746 161.6068 353.0506 0.28474892 1387 MMS 4 1 40485U 15011D 25258.58341435 -.00002335 00000+0 00000+0 0 9996 2 40485 67.4768 353.0911 8603943 161.6153 353.0212 0.28474589 1384 ASTROSAT 1 40930U 15052A 25258.21212797 .00002071 00000+0 17435-3 0 9994 2 40930 5.9978 333.5259 0007633 67.7851 292.3087 14.81649209538965 DAMPE 1 41173U 15078A 25258.60506634 .00001433 00000+0 52371-4 0 9991 2 41173 97.4536 257.9796 0011503 338.4186 21.6568 15.29730018542555 PISAT 1 41784U 16059B 25258.57262123 .00000997 00000+0 18040-3 0 9995 2 41784 97.8182 266.0436 0029581 5.7966 354.3576 14.68151168479437 HXMT (HUIYAN) 1 42758U 17034A 25258.47513491 .00006423 00000+0 34741-3 0 9993 2 42758 43.0139 268.8858 0034280 210.9247 148.9581 15.14763968455948 FLYING LAPTOP 1 42831U 17042G 25258.65148331 .00002267 00000+0 19085-3 0 9997 2 42831 97.4152 61.4136 0010901 341.8200 18.2632 14.99137119445299 ZHANGHENG 1-01 (CSES-1) 1 43194U 18015C 25258.63887848 .00011892 00000+0 53439-3 0 9997 2 43194 97.6608 54.3114 0016133 176.6087 183.5260 15.21186471422915 SALSAT 1 46495U 20068K 25258.48819457 .00008062 00000+0 33435-3 0 9998 2 46495 97.8709 241.1823 0011248 171.3408 188.8025 15.24108172273433 IXPE 1 49954U 21121A 25258.58341435 .00010670 00000+0 64323-3 0 9997 2 49954 0.2299 229.0895 0008374 252.7788 28.9011 15.06434516 5462